TimeEDT,TemperatureF,Dew PointF,Humidity,Sea Level PressureIn,VisibilityMPH,Wind Direction,Wind SpeedMPH,Gust SpeedMPH,PrecipitationIn,Events,Conditions,WindDirDegrees,DateUTC
12:00 AM,77.0,73.4,89,30.05,6.2,Calm,Calm,-,N/A,,Mostly Cloudy,0,2013-08-27 04:00:00
1:00 AM,77.0,73.4,89,30.03,6.2,Calm,Calm,-,N/A,,Mostly Cloudy,0,2013-08-27 05:00:00
2:00 AM,77,75,92,30.02,7,Calm,Calm,,,,Partly Cloudy,,2013-08-27 06:00:00
2:00 AM,77.0,75.2,94,30.01,6.2,Calm,Calm,-,N/A,,Mostly Cloudy,0,2013-08-27 06:00:00
5:00 AM,78,74,84,29.99,8,,2.3,,,,Partly Cloudy,,2013-08-27 09:00:00
5:00 AM,78.8,73.4,83,29.98,6.2,Variable,2.3,-,N/A,,Mostly Cloudy,0,2013-08-27 09:00:00
6:00 AM,77.0,71.6,83,29.98,6.2,Variable,1.2,-,N/A,,Mostly Cloudy,0,2013-08-27 10:00:00
7:00 AM,78.8,71.6,78,30.00,6.2,Variable,2.3,-,N/A,,Mostly Cloudy,0,2013-08-27 11:00:00
8:00 AM,80,74,79,30.00,9,NE,3.5,,,,Mostly Cloudy,50,2013-08-27 12:00:00
8:00 AM,78.8,75.2,89,30.00,6.2,NE,3.5,-,N/A,,Mostly Cloudy,50,2013-08-27 12:00:00
9:00 AM,82.4,73.4,74,30.01,6.2,ENE,5.8,-,N/A,,Mostly Cloudy,60,2013-08-27 13:00:00
10:00 AM,84.2,75.2,74,30.01,6.2,ENE,6.9,-,N/A,,Mostly Cloudy,60,2013-08-27 14:00:00
11:00 AM,85,76,68,30.03,9,East,4.6,,,Rain,Light Rain Showers,100,2013-08-27 15:00:00
11:00 AM,84.2,75.2,74,30.02,6.2,East,4.6,-,N/A,Rain,Light Rain Showers,100,2013-08-27 15:00:00
12:00 PM,84.2,73.4,70,30.01,6.2,East,6.9,-,N/A,,Mostly Cloudy,90,2013-08-27 16:00:00
1:00 PM,84.2,73.4,70,30.01,6.2,SE,8.1,-,N/A,Thunderstorm,Mostly Cloudy,130,2013-08-27 17:00:00
2:00 PM,85,76,69,30.01,9,East,8.1,,,,Partly Cloudy,100,2013-08-27 18:00:00
2:00 PM,84.2,77.0,79,30.01,6.2,East,8.1,-,N/A,,Mostly Cloudy,100,2013-08-27 18:00:00
3:00 PM,84.2,73.4,70,30.01,6.2,East,3.5,-,N/A,,Mostly Cloudy,100,2013-08-27 19:00:00
4:00 PM,84.2,73.4,70,30.00,6.2,East,2.3,-,N/A,,Mostly Cloudy,100,2013-08-27 20:00:00
5:00 PM,79,76,87,29.99,7,,16.1,,,,,,2013-08-27 21:00:00
5:00 PM,78.8,75.2,89,29.99,6.2,WSW,4.6,-,N/A,,Mostly Cloudy,250,2013-08-27 21:00:00
6:00 PM,78.8,73.4,83,29.98,6.2,Variable,1.2,-,N/A,,Mostly Cloudy,0,2013-08-27 22:00:00
8:00 PM,80,73,75,30.01,9,NNW,2.2,,,,Partly Cloudy,340,2013-08-28 00:00:00
8:00 PM,80.6,73.4,79,30.01,-9999.0,North,-9999.0,-,N/A,,Mostly Cloudy,0,2013-08-28 00:00:00
9:00 PM,78.8,73.4,83,30.01,6.2,Calm,Calm,-,N/A,,Scattered Clouds,0,2013-08-28 01:00:00
10:00 PM,78.8,73.4,83,30.04,6.2,Calm,Calm,-,N/A,,Scattered Clouds,0,2013-08-28 02:00:00
11:00 PM,77,76,95,30.04,9,Calm,Calm,,,,Scattered Clouds,,2013-08-28 03:00:00
11:00 PM,77.0,75.2,94,30.03,6.2,Calm,Calm,-,N/A,,Partly Cloudy,0,2013-08-28 03:00:00